EZY787R EGBB-EGPF

Flight info

Callsign EZY787R
Flight time 0h 49m
Altitude 24000
Route LUVUM DCT TNT N57 POL N601 RIBEL DCT ASLIB
Aircraft A320/M-SDE2E3FGHIJ1RWXYZ/LB1

Departure

Time 2026-05-07 20:34
Airport Birmingham Airport (EGBB)

Arrival

Time 2026-05-07 21:23
Airport Glasgow Airport (EGPF)
Time Latitude Longitude Altitude Speed Heading
2026-05-07 19:54 52.45139 -1.73433 324 ft 0 kts 141°
2026-05-07 20:13 52.45139 -1.73434 324 ft 0 kts 141°
2026-05-07 20:24 52.45143 -1.73439 324 ft 4 kts 141°
2026-05-07 20:25 52.45160 -1.73462 322 ft 4 kts 145°
2026-05-07 20:25 52.45183 -1.73479 321 ft 4 kts 183°
2026-05-07 20:25 52.45205 -1.73465 323 ft 4 kts 230°
2026-05-07 20:25 52.45206 -1.73465 323 ft 4 kts 236°
2026-05-07 20:26 52.45195 -1.73492 323 ft 0 kts 236°
2026-05-07 20:28 52.45180 -1.73527 324 ft 7 kts 236°
2026-05-07 20:29 52.45140 -1.73624 324 ft 12 kts 236°
2026-05-07 20:29 52.45104 -1.73748 324 ft 12 kts 275°
2026-05-07 20:29 52.45163 -1.73846 324 ft 12 kts 326°
2026-05-07 20:29 52.45230 -1.73920 324 ft 11 kts 326°
2026-05-07 20:30 52.45292 -1.73991 323 ft 10 kts 317°
2026-05-07 20:30 52.45327 -1.74089 323 ft 10 kts 297°
2026-05-07 20:30 52.45364 -1.74210 323 ft 14 kts 296°
2026-05-07 20:30 52.45414 -1.74372 323 ft 18 kts 297°
2026-05-07 20:31 52.45465 -1.74538 323 ft 14 kts 297°
2026-05-07 20:31 52.45546 -1.74653 323 ft 18 kts 326°
2026-05-07 20:31 52.45674 -1.74794 315 ft 26 kts 326°
2026-05-07 20:31 52.45834 -1.74971 308 ft 26 kts 326°
2026-05-07 20:32 52.45974 -1.75128 306 ft 21 kts 326°
2026-05-07 20:32 52.46068 -1.75232 306 ft 13 kts 326°
2026-05-07 20:32 52.46149 -1.75323 304 ft 14 kts 325°
2026-05-07 20:32 52.46213 -1.75405 304 ft 12 kts 304°
2026-05-07 20:33 52.46215 -1.75465 306 ft 1 kts 252°
2026-05-07 20:33 52.46204 -1.75495 309 ft 7 kts 237°
2026-05-07 20:33 52.46167 -1.75582 310 ft 10 kts 235°
2026-05-07 20:33 52.46120 -1.75618 309 ft 7 kts 150°
2026-05-07 20:34 52.46059 -1.75551 312 ft 26 kts 146°
2026-05-07 20:34 52.45683 -1.75133 322 ft 101 kts 146°
2026-05-07 20:34 52.44928 -1.74292 388 ft 154 kts 146°
2026-05-07 20:34 52.44042 -1.73326 1137 ft 153 kts 147°
2026-05-07 20:35 52.43137 -1.72328 1814 ft 165 kts 147°
2026-05-07 20:35 52.42122 -1.71201 2257 ft 187 kts 147°
2026-05-07 20:35 52.41038 -1.69894 2830 ft 199 kts 136°
2026-05-07 20:35 52.40404 -1.67852 3505 ft 211 kts 102°
2026-05-07 20:36 52.40551 -1.65383 4103 ft 225 kts 79°
2026-05-07 20:36 52.41111 -1.62983 5035 ft 230 kts 57°
2026-05-07 20:36 52.42281 -1.61160 5790 ft 237 kts 28°
2026-05-07 20:36 52.43837 -1.60316 6689 ft 237 kts 12°
2026-05-07 20:37 52.45449 -1.59729 7586 ft 238 kts
2026-05-07 20:37 52.47161 -1.59711 8146 ft 258 kts 355°
2026-05-07 20:37 52.49037 -1.59894 8674 ft 280 kts 355°
2026-05-07 20:37 52.51002 -1.60202 9504 ft 287 kts 346°
2026-05-07 20:38 52.52887 -1.61316 10323 ft 295 kts 334°
2026-05-07 20:38 52.54838 -1.62736 10721 ft 317 kts 334°
2026-05-07 20:38 52.56887 -1.64221 11456 ft 325 kts 334°
2026-05-07 20:38 52.58978 -1.65724 12312 ft 331 kts 334°
2026-05-07 20:39 52.61103 -1.67246 13139 ft 337 kts 334°
2026-05-07 20:39 52.63271 -1.68798 13925 ft 342 kts 334°
2026-05-07 20:39 52.65472 -1.70378 14652 ft 347 kts 334°
2026-05-07 20:39 52.67697 -1.71978 15387 ft 351 kts 334°
2026-05-07 20:40 52.69995 -1.73407 16119 ft 357 kts 343°
2026-05-07 20:40 52.72460 -1.74094 16848 ft 362 kts 355°
2026-05-07 20:40 52.74995 -1.73918 17586 ft 368 kts
2026-05-07 20:40 52.77541 -1.73318 18327 ft 372 kts
2026-05-07 20:41 52.80081 -1.72733 18955 ft 375 kts
2026-05-07 20:41 52.82678 -1.72147 19594 ft 378 kts
2026-05-07 20:41 52.85296 -1.71563 20240 ft 381 kts
2026-05-07 20:41 52.87934 -1.70972 20875 ft 384 kts
2026-05-07 20:42 52.90594 -1.70373 21504 ft 387 kts
2026-05-07 20:42 52.93274 -1.69769 22127 ft 390 kts
2026-05-07 20:42 52.95973 -1.69157 22736 ft 393 kts
2026-05-07 20:42 52.98692 -1.68536 23329 ft 396 kts
2026-05-07 20:43 53.01433 -1.67907 23846 ft 399 kts
2026-05-07 20:43 53.04198 -1.67656 24009 ft 397 kts 355°
2026-05-07 20:43 53.06879 -1.68189 24048 ft 377 kts 345°
2026-05-07 20:43 53.09334 -1.69428 24050 ft 365 kts 337°
2026-05-07 20:44 53.11708 -1.70868 24049 ft 362 kts 337°
2026-05-07 20:44 53.14067 -1.72325 24047 ft 361 kts 336°
2026-05-07 20:44 53.16419 -1.73792 24049 ft 361 kts 336°
2026-05-07 20:44 53.18774 -1.75263 24047 ft 361 kts 336°
2026-05-07 20:45 53.21124 -1.76732 24050 ft 361 kts 336°
2026-05-07 20:45 53.23478 -1.78206 24050 ft 361 kts 336°
2026-05-07 20:45 53.25832 -1.79679 24049 ft 362 kts 336°
2026-05-07 20:45 53.28195 -1.81159 24048 ft 363 kts 336°
2026-05-07 20:46 53.30557 -1.82636 24050 ft 363 kts 336°
2026-05-07 20:46 53.32924 -1.84114 24052 ft 363 kts 336°
2026-05-07 20:46 53.35291 -1.85594 24047 ft 363 kts 336°
2026-05-07 20:46 53.37656 -1.87074 24046 ft 363 kts 336°
2026-05-07 20:47 53.40025 -1.88557 24056 ft 363 kts 336°
2026-05-07 20:47 53.42389 -1.90039 24056 ft 363 kts 336°
2026-05-07 20:47 53.44755 -1.91527 24047 ft 363 kts 336°
2026-05-07 20:47 53.47123 -1.93018 24049 ft 363 kts 336°
2026-05-07 20:48 53.49486 -1.94504 24053 ft 363 kts 336°
2026-05-07 20:48 53.51854 -1.95996 24058 ft 363 kts 336°
2026-05-07 20:48 53.54221 -1.97493 24054 ft 363 kts 336°
2026-05-07 20:48 53.56552 -1.98969 24056 ft 363 kts 336°
2026-05-07 20:49 53.58945 -2.00488 24050 ft 363 kts 336°
2026-05-07 20:49 53.61307 -2.01987 24053 ft 363 kts 336°
2026-05-07 20:49 53.63672 -2.03488 24050 ft 363 kts 336°
2026-05-07 20:49 53.66031 -2.04988 24053 ft 363 kts 336°
2026-05-07 20:50 53.68394 -2.06495 24056 ft 363 kts 336°
2026-05-07 20:50 53.70754 -2.07999 24053 ft 363 kts 336°
2026-05-07 20:50 53.73034 -2.09454 24062 ft 363 kts 336°
2026-05-07 20:50 53.75392 -2.10971 24056 ft 363 kts 335°
2026-05-07 20:51 53.77737 -2.12531 24051 ft 362 kts 335°
2026-05-07 20:51 53.80074 -2.14124 24050 ft 362 kts 335°
2026-05-07 20:51 53.82407 -2.15732 24048 ft 362 kts 334°
2026-05-07 20:51 53.84742 -2.17346 24047 ft 362 kts 334°
2026-05-07 20:52 53.87075 -2.18957 24047 ft 362 kts 335°
2026-05-07 20:52 53.89407 -2.20566 24047 ft 362 kts 335°
2026-05-07 20:52 53.91744 -2.22173 24043 ft 362 kts 335°
2026-05-07 20:52 53.94076 -2.23776 24043 ft 362 kts 335°
2026-05-07 20:53 53.96415 -2.25383 24043 ft 362 kts 335°
2026-05-07 20:53 53.98747 -2.26988 24054 ft 362 kts 335°
2026-05-07 20:53 54.01085 -2.28599 24051 ft 362 kts 334°
2026-05-07 20:53 54.03319 -2.30531 24046 ft 360 kts 328°
2026-05-07 20:54 54.05514 -2.32586 24039 ft 360 kts 328°
2026-05-07 20:54 54.07708 -2.34643 24039 ft 360 kts 328°
2026-05-07 20:54 54.09901 -2.36704 24038 ft 360 kts 328°
2026-05-07 20:54 54.12097 -2.38762 24039 ft 360 kts 328°
2026-05-07 20:55 54.14295 -2.40824 24039 ft 360 kts 328°
2026-05-07 20:55 54.16491 -2.42886 24039 ft 360 kts 328°
2026-05-07 20:55 54.18686 -2.44950 24039 ft 360 kts 328°
2026-05-07 20:55 54.20880 -2.47018 24038 ft 360 kts 328°
2026-05-07 20:56 54.23074 -2.49088 24046 ft 360 kts 328°
2026-05-07 20:56 54.25270 -2.51166 24042 ft 361 kts 328°
2026-05-07 20:56 54.27467 -2.53250 24038 ft 361 kts 328°
2026-05-07 20:56 54.29664 -2.55331 24034 ft 361 kts 328°
2026-05-07 20:57 54.31865 -2.57413 24033 ft 361 kts 328°
2026-05-07 20:57 54.34066 -2.59499 24030 ft 362 kts 328°
2026-05-07 20:57 54.36267 -2.61593 24030 ft 362 kts 328°
2026-05-07 20:57 54.38467 -2.63688 24030 ft 362 kts 328°
2026-05-07 20:58 54.40665 -2.65781 24031 ft 362 kts 328°
2026-05-07 20:58 54.42835 -2.67852 24039 ft 361 kts 327°
2026-05-07 20:58 54.45064 -2.69980 24039 ft 362 kts 327°
2026-05-07 20:58 54.47234 -2.72054 24047 ft 362 kts 327°
2026-05-07 20:59 54.49431 -2.74157 24042 ft 362 kts 327°
2026-05-07 20:59 54.51633 -2.76268 24039 ft 362 kts 327°
2026-05-07 20:59 54.53832 -2.78380 24037 ft 362 kts 327°
2026-05-07 20:59 54.56037 -2.80496 24034 ft 363 kts 327°
2026-05-07 21:00 54.58240 -2.82611 24032 ft 363 kts 327°
2026-05-07 21:00 54.60443 -2.84734 24031 ft 363 kts 327°
2026-05-07 21:00 54.62645 -2.86859 24029 ft 363 kts 327°
2026-05-07 21:00 54.64844 -2.88983 24030 ft 363 kts 327°
2026-05-07 21:01 54.67046 -2.91115 24031 ft 363 kts 327°
2026-05-07 21:01 54.69243 -2.93245 24030 ft 362 kts 327°
2026-05-07 21:01 54.71445 -2.95382 24030 ft 363 kts 327°
2026-05-07 21:01 54.73644 -2.97519 24043 ft 363 kts 327°
2026-05-07 21:02 54.75844 -2.99661 24039 ft 363 kts 327°
2026-05-07 21:02 54.78048 -3.01807 24034 ft 363 kts 327°
2026-05-07 21:02 54.80250 -3.03955 24026 ft 363 kts 327°
2026-05-07 21:02 54.82452 -3.06104 24024 ft 363 kts 327°
2026-05-07 21:03 54.84658 -3.08257 24024 ft 364 kts 327°
2026-05-07 21:03 54.86861 -3.10409 24026 ft 364 kts 327°
2026-05-07 21:03 54.89065 -3.12564 24023 ft 364 kts 327°
2026-05-07 21:03 54.91268 -3.14725 24026 ft 364 kts 327°
2026-05-07 21:04 54.93440 -3.16860 24018 ft 364 kts 327°
2026-05-07 21:04 54.95638 -3.19022 23867 ft 362 kts 327°
2026-05-07 21:04 54.97817 -3.21171 23650 ft 359 kts 326°
2026-05-07 21:04 54.99985 -3.23313 23390 ft 357 kts 326°
2026-05-07 21:05 55.02143 -3.25445 23102 ft 356 kts 326°
2026-05-07 21:05 55.04292 -3.27568 22823 ft 355 kts 326°
2026-05-07 21:05 55.06435 -3.29689 22564 ft 354 kts 326°
2026-05-07 21:05 55.08566 -3.31798 22254 ft 350 kts 326°
2026-05-07 21:06 55.10673 -3.33882 21824 ft 347 kts 326°
2026-05-07 21:06 55.12764 -3.35956 21387 ft 345 kts 326°
2026-05-07 21:06 55.14840 -3.38022 20955 ft 343 kts 326°
2026-05-07 21:06 55.16907 -3.40083 20531 ft 341 kts 326°
2026-05-07 21:07 55.18963 -3.42133 20106 ft 340 kts 326°
2026-05-07 21:07 55.21017 -3.44183 19593 ft 342 kts 326°
2026-05-07 21:07 55.23096 -3.46264 19023 ft 346 kts 326°
2026-05-07 21:07 55.25200 -3.48375 18442 ft 350 kts 326°
2026-05-07 21:08 55.27327 -3.50510 17804 ft 354 kts 326°
2026-05-07 21:08 55.29466 -3.52652 17247 ft 354 kts 326°
2026-05-07 21:08 55.31594 -3.54785 16755 ft 352 kts 326°
2026-05-07 21:08 55.33717 -3.56921 16323 ft 349 kts 326°
2026-05-07 21:09 55.35808 -3.59031 15923 ft 346 kts 326°
2026-05-07 21:09 55.37879 -3.61117 15361 ft 340 kts 326°
2026-05-07 21:09 55.39920 -3.63179 14587 ft 336 kts 326°
2026-05-07 21:09 55.41938 -3.65217 13866 ft 332 kts 326°
2026-05-07 21:10 55.43921 -3.67224 13206 ft 324 kts 326°
2026-05-07 21:10 55.45845 -3.69164 12671 ft 313 kts 326°
2026-05-07 21:10 55.47707 -3.71040 12155 ft 305 kts 326°
2026-05-07 21:10 55.49618 -3.72514 11661 ft 305 kts 338°
2026-05-07 21:11 55.51664 -3.73634 11344 ft 303 kts 339°
2026-05-07 21:11 55.53675 -3.74691 10997 ft 300 kts 339°
2026-05-07 21:11 55.57627 -3.76761 10346 ft 296 kts 339°
2026-05-07 21:12 55.59594 -3.77795 9997 ft 294 kts 339°
2026-05-07 21:12 55.61549 -3.78823 9631 ft 292 kts 339°
2026-05-07 21:12 55.63492 -3.79848 9237 ft 290 kts 339°
2026-05-07 21:12 55.65423 -3.80870 8880 ft 290 kts 339°
2026-05-07 21:13 55.67348 -3.81892 8512 ft 288 kts 339°
2026-05-07 21:13 55.69259 -3.82907 8100 ft 286 kts 339°
2026-05-07 21:13 55.71164 -3.83921 7693 ft 285 kts 339°
2026-05-07 21:13 55.73055 -3.84934 7302 ft 283 kts 339°
2026-05-07 21:14 55.74939 -3.85944 6893 ft 282 kts 339°
2026-05-07 21:14 55.76816 -3.86955 6485 ft 281 kts 339°
2026-05-07 21:14 55.78677 -3.87967 6070 ft 279 kts 339°
2026-05-07 21:14 55.80507 -3.88959 5817 ft 265 kts 339°
2026-05-07 21:15 55.82208 -3.89864 5555 ft 249 kts 339°
2026-05-07 21:15 55.83853 -3.90730 5119 ft 246 kts 339°
2026-05-07 21:15 55.85484 -3.91591 4821 ft 243 kts 339°
2026-05-07 21:15 55.87056 -3.92604 4506 ft 236 kts 325°
2026-05-07 21:16 55.87962 -3.93617 4431 ft 228 kts 321°
2026-05-07 21:16 55.89253 -3.95212 4195 ft 224 kts 319°
2026-05-07 21:16 55.90526 -3.96808 3865 ft 224 kts 319°
2026-05-07 21:16 55.91807 -3.98393 3536 ft 223 kts 319°
2026-05-07 21:17 55.93065 -3.99927 3371 ft 215 kts 319°
2026-05-07 21:17 55.94294 -4.01412 3139 ft 212 kts 319°
2026-05-07 21:17 55.95384 -4.03084 3020 ft 201 kts 295°
2026-05-07 21:17 55.95925 -4.05323 3023 ft 196 kts 281°
2026-05-07 21:18 55.96316 -4.07639 3020 ft 195 kts 279°
2026-05-07 21:18 55.96689 -4.09986 3026 ft 197 kts 279°
2026-05-07 21:18 55.97058 -4.12344 3023 ft 200 kts 279°
2026-05-07 21:18 55.97433 -4.14746 3023 ft 199 kts 279°
2026-05-07 21:19 55.97800 -4.17123 3028 ft 198 kts 279°
2026-05-07 21:19 55.98115 -4.19495 3026 ft 192 kts 270°
2026-05-07 21:19 55.98034 -4.21761 2992 ft 177 kts 251°
2026-05-07 21:19 55.97562 -4.23715 2850 ft 168 kts 232°
2026-05-07 21:20 55.96812 -4.25263 2677 ft 163 kts 225°
2026-05-07 21:20 55.96049 -4.26701 2468 ft 161 kts 225°
2026-05-07 21:20 55.95279 -4.28150 2243 ft 161 kts 225°
2026-05-07 21:20 55.94520 -4.29581 2024 ft 157 kts 224°
2026-05-07 21:21 55.93782 -4.30968 1820 ft 151 kts 224°
2026-05-07 21:21 55.93079 -4.32290 1615 ft 144 kts 224°
2026-05-07 21:21 55.92394 -4.33574 1423 ft 142 kts 224°
2026-05-07 21:21 55.91748 -4.34789 1218 ft 131 kts 223°
2026-05-07 21:22 55.91136 -4.35938 1037 ft 126 kts 225°
2026-05-07 21:22 55.90533 -4.37068 854 ft 125 kts 224°
2026-05-07 21:22 55.89930 -4.38201 674 ft 126 kts 223°
2026-05-07 21:22 55.89334 -4.39327 492 ft 126 kts 225°
2026-05-07 21:23 55.88724 -4.40454 330 ft 127 kts 224°
2026-05-07 21:23 55.88118 -4.41591 159 ft 127 kts 225°
2026-05-07 21:23 55.87521 -4.42717 30 ft 115 kts 225°
2026-05-07 21:23 55.87158 -4.43396 29 ft 34 kts 226°
2026-05-07 21:24 55.86992 -4.43645 29 ft 29 kts 208°
2026-05-07 21:24 55.86823 -4.43750 29 ft 14 kts 199°
2026-05-07 21:24 55.86746 -4.43754 29 ft 11 kts 138°
2026-05-07 21:24 55.86751 -4.43631 29 ft 10 kts 73°
2026-05-07 21:25 55.86770 -4.43517 29 ft 9 kts 74°
2026-05-07 21:25 55.86789 -4.43393 29 ft 13 kts 74°
2026-05-07 21:25 55.86814 -4.43239 29 ft 12 kts 73°
2026-05-07 21:25 55.86836 -4.43102 29 ft 11 kts 73°
2026-05-07 21:26 55.86815 -4.43007 29 ft 8 kts 156°
2026-05-07 21:26 55.86758 -4.42979 29 ft 9 kts 165°
2026-05-07 21:26 55.86697 -4.42952 29 ft 8 kts 169°
2026-05-07 21:26 55.86651 -4.42931 29 ft 4 kts 183°
2026-05-07 21:27 55.86639 -4.42959 29 ft 2 kts 242°
2026-05-07 21:27 55.86636 -4.42985 29 ft 2 kts 255°
2026-05-07 21:27 55.86633 -4.43007 29 ft 2 kts 254°
2026-05-07 21:27 55.86632 -4.43010 29 ft 0 kts 254°